TimeEDT,TemperatureF,Dew PointF,Humidity,Sea Level PressureIn,VisibilityMPH,Wind Direction,Wind SpeedMPH,Gust SpeedMPH,PrecipitationIn,Events,Conditions,WindDirDegrees,DateUTC
12:53 AM,70.0,64.9,84,29.78,10.0,SSW,12.7,-,N/A,,Mostly Cloudy,200,2013-08-30 04:53:00
1:35 AM,69.8,64.4,83,29.83,10.0,Variable,6.9,-,N/A,Thunderstorm,Mostly Cloudy,0,2013-08-30 05:35:00
1:53 AM,71.1,64.9,81,29.83,8.0,WNW,12.7,-,0.03,Rain-Thunderstorm,Light Thunderstorms and Rain,290,2013-08-30 05:53:00
1:56 AM,69.8,64.4,83,29.80,1.8,NNW,9.2,-,0.19,Rain-Thunderstorm,Thunderstorms and Rain,330,2013-08-30 05:56:00
2:08 AM,69.8,66.2,88,29.82,4.0,WSW,8.1,-,0.30,Rain-Thunderstorm,Light Thunderstorms and Rain,240,2013-08-30 06:08:00
2:20 AM,69.8,66.2,88,29.81,9.0,West,8.1,-,0.30,Rain-Thunderstorm,Light Rain,260,2013-08-30 06:20:00
2:28 AM,69.8,66.2,88,29.81,4.0,WSW,8.1,-,0.32,Rain-Thunderstorm,Light Rain,240,2013-08-30 06:28:00
2:35 AM,69.8,66.2,88,29.81,4.0,WSW,8.1,-,0.34,Rain,Light Rain,250,2013-08-30 06:35:00
2:53 AM,69.1,66.9,93,29.79,9.0,WSW,8.1,-,0.35,Rain,Light Rain,250,2013-08-30 06:53:00
3:53 AM,69.1,66.9,93,29.75,10.0,WSW,10.4,18.4,0.01,,Mostly Cloudy,240,2013-08-30 07:53:00
4:06 AM,69.8,66.2,88,29.76,10.0,WSW,9.2,18.4,N/A,,Overcast,250,2013-08-30 08:06:00
4:15 AM,69.8,66.2,88,29.77,10.0,WSW,10.4,-,N/A,,Overcast,250,2013-08-30 08:15:00
4:44 AM,69.8,68.0,94,29.77,10.0,West,15.0,-,N/A,,Overcast,280,2013-08-30 08:44:00
4:53 AM,70.0,68.0,93,29.75,10.0,WNW,16.1,-,N/A,,Overcast,290,2013-08-30 08:53:00
5:53 AM,69.1,66.0,90,29.77,10.0,WNW,16.1,-,N/A,,Overcast,300,2013-08-30 09:53:00
6:28 AM,66.2,64.4,94,29.79,1.5,NW,18.4,27.6,N/A,,Overcast,320,2013-08-30 10:28:00
6:34 AM,66.2,64.4,94,29.79,0.2,NW,18.4,27.6,N/A,Fog,Fog,320,2013-08-30 10:34:00
6:53 AM,64.9,63.0,93,29.79,0.8,NW,16.1,21.9,N/A,,Mist,320,2013-08-30 10:53:00
6:57 AM,64.4,62.6,94,29.80,2.0,NW,18.4,25.3,N/A,,Overcast,320,2013-08-30 10:57:00
7:00 AM,64.4,62.6,94,29.80,0.8,NNW,20.7,25.3,N/A,,Mist,330,2013-08-30 11:00:00
7:04 AM,64.4,62.6,94,29.80,0.2,NW,20.7,28.8,N/A,Fog,Fog,320,2013-08-30 11:04:00
7:23 AM,62.6,62.6,100,29.80,1.0,North,18.4,29.9,N/A,,Mist,350,2013-08-30 11:23:00
7:53 AM,63.0,62.1,97,29.81,1.5,North,16.1,24.2,0.00,Rain,Light Rain,360,2013-08-30 11:53:00
8:00 AM,62.6,62.6,100,29.81,3.0,North,13.8,23.0,0.00,Rain,Light Rain,360,2013-08-30 12:00:00
8:09 AM,64.4,62.6,94,29.82,10.0,North,15.0,23.0,0.00,,Overcast,10,2013-08-30 12:09:00
8:53 AM,64.0,63.0,96,29.83,10.0,NNE,12.7,-,0.00,,Overcast,20,2013-08-30 12:53:00
9:53 AM,64.0,62.1,93,29.84,10.0,NNE,12.7,20.7,N/A,,Overcast,20,2013-08-30 13:53:00
10:53 AM,64.0,61.0,90,29.88,10.0,NNW,10.4,18.4,N/A,,Overcast,340,2013-08-30 14:53:00
11:53 AM,64.9,62.1,90,29.90,10.0,North,10.4,-,N/A,,Overcast,350,2013-08-30 15:53:00
12:10 PM,64.4,62.6,94,29.91,10.0,NNE,9.2,20.7,N/A,,Overcast,30,2013-08-30 16:10:00
12:45 PM,66.2,62.6,88,29.92,10.0,NNE,10.4,-,N/A,,Mostly Cloudy,30,2013-08-30 16:45:00
12:53 PM,64.9,61.0,87,29.92,10.0,NNE,12.7,20.7,N/A,,Mostly Cloudy,30,2013-08-30 16:53:00
1:53 PM,71.1,62.1,73,29.93,10.0,NNE,12.7,-,N/A,,Overcast,20,2013-08-30 17:53:00
2:53 PM,70.0,62.1,76,29.94,10.0,NNE,16.1,24.2,N/A,,Overcast,30,2013-08-30 18:53:00
3:35 PM,71.6,60.8,69,29.95,10.0,North,18.4,24.2,N/A,,Scattered Clouds,10,2013-08-30 19:35:00
3:53 PM,71.1,61.0,70,29.94,10.0,NNE,17.3,21.9,N/A,,Mostly Cloudy,20,2013-08-30 19:53:00
4:53 PM,72.0,62.1,71,29.94,10.0,NNE,15.0,20.7,N/A,,Mostly Cloudy,30,2013-08-30 20:53:00
5:53 PM,69.1,61.0,75,29.94,10.0,NNE,9.2,-,N/A,,Overcast,30,2013-08-30 21:53:00
6:53 PM,66.9,61.0,81,29.96,10.0,NNE,12.7,17.3,N/A,,Overcast,20,2013-08-30 22:53:00
7:20 PM,66.2,60.8,83,29.95,10.0,NNE,10.4,-,N/A,,Scattered Clouds,20,2013-08-30 23:20:00
7:53 PM,66.0,61.0,84,29.95,10.0,NNE,6.9,-,N/A,,Clear,30,2013-08-30 23:53:00
8:09 PM,64.4,60.8,88,29.95,10.0,NE,9.2,-,N/A,,Partly Cloudy,40,2013-08-31 00:09:00
8:53 PM,63.0,59.0,87,29.95,10.0,NNE,4.6,-,N/A,,Clear,20,2013-08-31 00:53:00
9:53 PM,61.0,57.9,90,29.95,10.0,NE,3.5,-,N/A,,Clear,50,2013-08-31 01:53:00
10:53 PM,60.1,57.0,90,29.96,10.0,East,6.9,-,N/A,,Clear,100,2013-08-31 02:53:00
11:03 PM,60.8,57.2,88,29.96,10.0,East,5.8,-,N/A,,Scattered Clouds,100,2013-08-31 03:03:00
11:48 PM,59.0,57.2,94,29.96,10.0,Calm,Calm,-,N/A,,Mostly Cloudy,0,2013-08-31 03:48:00
11:53 PM,59.0,57.0,93,29.96,10.0,Calm,Calm,-,N/A,,Mostly Cloudy,0,2013-08-31 03:53:00